Date String (YYYY-MM-DD hh:mm:ss) UTC,Instrument flags,Ambient pressure (hPa),Sample flow (lpm),Bypass flow (lpm),Sample temperature (°C),Ambient temperature (°C),ASC tube jacket temperature (°C),LED temperature (°C),Box temperature (°C),Sample RH (%),Span deviation,Mass concentration (μg/m³),Mass concentration (μg/m³),Mass concentration (μg/m³)
DateTimeUTC,F1_M11,P_M11,Q1_M11,Q2_M11,T1_M11,T2_M11,T3_M11,T4_M11,T5_M11,U1_M11,ZSPAN_M11,X0_M11,X2_M11,X1_M11
2022-06-30 16:00:00,,0829.5,5.00,0.00,29.6,28.6,00.0,38.3,31.6,29.3,0000.0,0009.22,0004.14,0003.52
2022-06-30 16:01:00,,0829.5,5.00,0.00,29.7,28.7,00.0,38.4,31.7,28.8,0000.0,0009.12,0004.13,0003.51
2022-06-30 16:02:00,,0829.5,5.00,0.00,29.7,28.4,00.0,38.3,31.6,28.6,0000.0,0008.97,0004.13,0003.50
2022-06-30 16:03:00,,0829.5,5.00,0.00,29.6,27.6,00.0,38.3,31.5,28.6,0000.0,0008.48,0004.14,0003.49
2022-06-30 16:04:00,,0829.6,5.01,0.00,29.6,27.2,00.0,38.3,31.4,28.7,0000.0,0008.34,0004.08,0003.46
2022-06-30 16:05:00,,0829.6,5.00,0.00,29.5,27.1,00.0,38.3,31.3,29.6,0000.0,0009.00,0004.09,0003.45
2022-06-30 16:06:00,,0829.6,4.99,0.00,29.5,27.2,00.0,38.3,31.2,29.7,0000.0,0009.45,0004.13,0003.44
2022-06-30 16:07:00,,0829.5,4.98,0.00,29.4,27.4,00.0,38.2,31.2,29.1,0000.0,0009.61,0004.14,0003.44
2022-06-30 16:08:00,,0829.5,5.00,0.00,29.4,27.6,00.0,38.2,31.2,29.4,0000.0,0009.00,0004.15,0003.44
2022-06-30 16:09:00,,0829.5,5.00,0.00,29.4,27.7,00.0,38.2,31.3,29.2,0000.0,0008.84,0004.11,0003.43
2022-06-30 16:10:00,,0829.6,4.99,0.00,29.4,27.9,00.0,38.2,31.3,30.2,0000.0,0008.66,0004.03,0003.42
2022-06-30 16:11:00,,0829.6,5.00,0.00,29.4,28.0,00.0,38.2,31.4,30.5,0000.0,0008.85,0003.99,0003.42
2022-06-30 16:12:00,,0829.6,5.00,0.00,29.5,28.2,00.0,38.2,31.4,30.3,0000.0,0009.20,0003.98,0003.41
2022-06-30 16:13:00,,0829.5,5.01,0.00,29.5,28.3,00.0,38.3,31.4,30.3,0000.0,0009.67,0003.99,0003.40
2022-06-30 16:14:00,,0829.6,5.00,0.00,29.5,28.4,00.0,38.3,31.5,30.2,0000.0,0009.50,0003.94,0003.39
2022-06-30 16:15:00,,0829.6,5.00,0.00,29.5,28.5,00.0,38.3,31.5,30.4,0000.0,0009.59,0003.98,0003.40
2022-06-30 16:16:00,,0829.7,5.00,0.00,29.6,28.6,00.0,38.3,31.6,30.4,0000.0,0009.56,0003.95,0003.38
2022-06-30 16:17:00,,0829.8,5.00,0.00,29.6,28.5,00.0,38.3,31.6,30.4,0000.0,0009.62,0003.91,0003.39
2022-06-30 16:18:00,,0829.7,5.00,0.00,29.6,27.9,00.0,38.3,31.5,30.1,0000.0,0009.59,0003.86,0003.39
2022-06-30 16:19:00,,0829.6,4.99,0.00,29.5,27.3,00.0,38.2,31.3,29.9,0000.0,0009.49,0003.83,0003.38
2022-06-30 16:20:00,,0829.7,5.00,0.00,29.5,27.1,00.0,38.2,31.3,28.7,0000.0,0009.50,0003.80,0003.37
2022-06-30 16:21:00,,0829.8,5.01,0.00,29.4,27.2,00.0,38.2,31.2,28.2,0000.0,0009.63,0003.83,0003.35
2022-06-30 16:22:00,,0829.7,5.00,0.00,29.4,27.3,00.0,38.2,31.2,29.1,0000.0,0009.64,0003.85,0003.33
2022-06-30 16:23:00,,0829.6,5.01,0.00,29.4,27.5,00.0,38.2,31.2,30.3,0000.0,0009.36,0003.85,0003.32
2022-06-30 16:24:00,,0829.7,5.00,0.00,29.4,27.6,00.0,38.2,31.2,30.6,0000.0,0008.70,0003.85,0003.31
2022-06-30 16:25:00,,0829.7,5.01,0.00,29.4,27.8,00.0,38.2,31.3,30.6,0000.0,0008.93,0003.85,0003.29
2022-06-30 16:26:00,,0829.7,5.00,0.00,29.4,27.9,00.0,38.2,31.3,30.6,0000.0,0009.35,0003.81,0003.29
2022-06-30 16:27:00,,0829.7,5.00,0.00,29.4,28.1,00.0,38.2,31.3,30.9,0000.0,0009.06,0003.80,0003.28
2022-06-30 16:28:00,,0829.6,5.00,0.00,29.4,28.2,00.0,38.2,31.4,31.2,0000.0,0009.10,0003.84,0003.27
2022-06-30 16:29:00,,0829.7,5.01,0.00,29.5,28.3,00.0,38.2,31.4,31.1,0000.0,0009.24,0003.90,0003.26
2022-06-30 16:30:00,,0829.6,5.00,0.00,29.5,28.4,00.0,38.2,31.5,30.9,0000.0,0009.27,0003.89,0003.24
2022-06-30 16:31:00,,0829.6,5.00,0.00,29.5,28.5,00.0,38.2,31.5,30.0,0000.0,0009.25,0003.90,0003.24
2022-06-30 16:32:00,,0829.7,5.01,0.00,29.6,28.6,00.0,38.2,31.5,29.4,0000.0,0009.22,0003.91,0003.25
2022-06-30 16:33:00,,0829.6,4.99,0.00,29.6,28.2,00.0,38.2,31.5,29.4,0000.0,0009.05,0003.89,0003.26
2022-06-30 16:34:00,,0829.5,5.00,0.00,29.5,27.4,00.0,38.2,31.3,28.8,0000.0,0008.82,0003.86,0003.25
2022-06-30 16:35:00,,0829.5,5.00,0.00,29.5,27.0,00.0,38.2,31.2,29.2,0000.0,0008.94,0003.88,0003.26
2022-06-30 16:36:00,,0829.5,5.01,0.00,29.4,27.0,00.0,38.2,31.2,29.5,0000.0,0008.91,0003.88,0003.27
2022-06-30 16:37:00,,0829.5,5.00,0.00,29.3,27.1,00.0,38.1,31.1,29.5,0000.0,0008.23,0003.90,0003.27
2022-06-30 16:38:00,,0829.5,5.00,0.00,29.3,27.3,00.0,38.1,31.1,29.6,0000.0,0008.01,0003.90,0003.27
2022-06-30 16:39:00,,0829.5,5.00,0.00,29.3,27.5,00.0,38.1,31.2,29.5,0000.0,0007.57,0003.89,0003.26
2022-06-30 16:40:00,,0829.6,4.99,0.00,29.3,27.6,00.0,38.1,31.2,29.4,0000.0,0007.07,0003.83,0003.25
2022-06-30 16:41:00,,0829.6,4.99,0.00,29.3,27.8,00.0,38.1,31.2,29.2,0000.0,0007.23,0003.83,0003.25
2022-06-30 16:42:00,,0829.6,5.00,0.00,29.3,28.0,00.0,38.1,31.3,29.5,0000.0,0008.05,0003.84,0003.25
2022-06-30 16:43:00,,0829.7,5.01,0.00,29.4,28.1,00.0,38.1,31.3,29.4,0000.0,0008.30,0003.79,0003.24
2022-06-30 16:44:00,,0829.8,5.00,0.00,29.4,28.2,00.0,38.1,31.4,29.7,0000.0,0008.23,0003.77,0003.24
2022-06-30 16:45:00,,0829.8,5.01,0.00,29.4,28.3,00.0,38.2,31.4,28.9,0000.0,0008.63,0003.82,0003.24
2022-06-30 16:46:00,,0829.8,5.01,0.00,29.5,28.4,00.0,38.2,31.4,28.5,0000.0,0009.18,0003.78,0003.23
2022-06-30 16:47:00,,0829.9,5.00,0.00,29.5,28.5,00.0,38.2,31.5,29.1,0000.0,0009.36,0003.75,0003.22
2022-06-30 16:48:00,,0829.8,5.00,0.00,29.5,28.6,00.0,38.2,31.5,29.2,0000.0,0009.50,0003.73,0003.21
2022-06-30 16:49:00,,0829.9,5.01,0.00,29.5,28.2,00.0,38.2,31.5,29.2,0000.0,0009.56,0003.74,0003.21
2022-06-30 16:50:00,,0830.0,4.99,0.00,29.5,27.4,00.0,38.2,31.3,28.9,0000.0,0009.61,0003.74,0003.20
2022-06-30 16:51:00,,0830.1,5.01,0.00,29.5,27.0,00.0,38.1,31.2,29.9,0000.0,0009.65,0003.73,0003.19
2022-06-30 16:52:00,,0830.1,5.01,0.00,29.4,27.0,00.0,38.1,31.1,29.8,0000.0,0009.79,0003.75,0003.19
2022-06-30 16:53:00,,0830.1,4.99,0.00,29.3,27.1,00.0,38.1,31.1,30.5,0000.0,0009.50,0003.78,0003.21
2022-06-30 16:54:00,,0830.0,5.00,0.00,29.3,27.3,00.0,38.1,31.1,30.2,0000.0,0010.04,0003.82,0003.23
2022-06-30 16:55:00,,0830.0,5.01,0.00,29.3,27.4,00.0,38.1,31.1,30.2,0000.0,0010.42,0003.86,0003.24
2022-06-30 16:56:00,,0830.1,5.00,0.00,29.3,27.6,00.0,38.1,31.2,30.8,0000.0,0010.22,0003.85,0003.25
2022-06-30 16:57:00,,0830.1,5.00,0.00,29.3,27.8,00.0,38.1,31.2,30.8,0000.0,0009.55,0003.87,0003.27
2022-06-30 16:58:00,,0830.1,4.99,0.00,29.3,27.9,00.0,38.1,31.3,29.4,0000.0,0009.43,0003.92,0003.29
2022-06-30 16:59:00,,0830.1,5.00,0.00,29.3,28.1,00.0,38.1,31.3,29.1,0000.0,0009.41,0004.00,0003.32
